[[{"header":{"parameterUnit":"m.s-1","parameterCategory":1,"la1":30.2991,"la2":30.254,"lo1":-89.0895,"lo2":-89.0444,"dy":0.0017,"dx":0.0017,"nx":28,"ny":28,"refTime":"2024-06-27T21:00:00:Z","depth":0,"parameterNumber":2,"parameterNumberName":"U-component_of_WINDS"},"data":[0,0,0,0,0,0,0,0,0,0,0,0,0,0,0,0,0,0,0,0,0,0,0,0,0,0,0,0,0,0,0,0,0,0,0,0,0,0,0,0,0,0,0,0,0,0,0,0,0,0,0,0,0,0,0,0,0,0,0.8139,0.814,0,0.8238,0.8239,0.8241,0.8338,0.8339,0.8341,0.8342,0.8445,0.8447,0.8448,0,0,0,0,0,0,0,0,0,0,0,0,0,0.8035,0.8037,0.8139,0.814,0.8141,0.8238,0.824,0.8241,0.8338,0.8339,0.8341,0.8342,0.8445,0.8446,0.8448,0,0,0,0,0,0,0,0,0,0,0,0,0,0.8102,0.8037,0.8139,0.8201,0.8208,0.8238,0.824,0.8241,0.8337,0.8339,0.8341,0.8343,0.8444,0.8446,0.8449,0.8425,0,0,0.8456,0.8457,0,0,0,0,0,0,0,0,0.8098,0.8106,0.8191,0.8197,0.8205,0.8278,0.8241,0.8303,0.8337,0.8288,0.8342,0.8344,0.8388,0.8395,0.841,0.843,0.8434,0.8456,0.8457,0.8458,0.8459,0,0,0,0,0,0,0,0.8093,0.8102,0.8178,0.8192,0.82,0.8225,0.8237,0.8253,0.8326,0.8293,0.83,0.831,0.8392,0.8407,0.8413,0.8436,0.8456,0.8458,0.8459,0.846,0.8443,0.8442,0,0,0,0,0,0,0.8079,0.8097,0.8175,0.8181,0.8155,0.8226,0.8239,0.8252,0.8326,0.834,0.8309,0.8315,0.8402,0.841,0.8417,0.8395,0.8458,0.8461,0.8462,0.8445,0.8443,0.8441,0,0,0,0,0,0,0.8076,0.8085,0.8171,0.8141,0.8154,0.8225,0.824,0.8253,0.8268,0.8338,0.8352,0.831,0.8404,0.8413,0.8422,0.84,0.8462,0.8464,0.8447,0.8444,0.8442,0.8351,0,0,0,0,0,0,0.8073,0.8083,0.8075,0.814,0.8155,0.8174,0.8239,0.8254,0.8272,0.8281,0.8344,0.8356,0.8406,0.8418,0.8425,0.8404,0.8466,0.845,0.8446,0.8443,0.8356,0.8345,0.8336,0,0,0,0,0,0.8069,0.8045,0.8074,0.8083,0.8146,0.8173,0.8182,0.8239,0.827,0.8262,0.8307,0.8354,0.8401,0.8418,0.8426,0.8406,0.8451,0.8447,0.8443,0.8361,0.8347,0.8336,0,0,0,0,0,0,0.7975,0.8055,0.8087,0.8084,0.8121,0.8189,0.8181,0.8223,0.8252,0.8259,0.833,0.8344,0.8345,0.8377,0.8394,0.8388,0.8433,0.843,0.8368,0.8356,0.8346,0.8338,0.8468,0,0,0,0,0,0.7954,0.7969,0.8038,0.8028,0.8045,0.8109,0.8123,0.8165,0.8206,0.8222,0.8268,0.8306,0.8331,0.8345,0.837,0.8361,0.8377,0.8351,0.8341,0.8332,0.833,0.8328,0.8318,0.8427,0.8427,0.8427,0,0,0.7911,0.7956,0.7961,0.8011,0.8044,0.8058,0.8122,0.8134,0.8146,0.8224,0.8236,0.827,0.8318,0.8318,0.8321,0.8345,0.8303,0.8327,0.832,0.8322,0.8323,0.8312,0.8303,0.8424,0.8425,0.8425,0,0,0.784,0.7875,0.7871,0.7903,0.7953,0.7996,0.7995,0.8057,0.8083,0.8096,0.8155,0.817,0.8209,0.8241,0.8262,0.8203,0.8248,0.821,0.8157,0.8155,0.8147,0.8139,0.8119,0.8111,0.8206,0.8206,0.8206,0,0.778,0.7803,0.7864,0.7873,0.7894,0.7965,0.7962,0.7991,0.8046,0.8059,0.8085,0.8136,0.8173,0.8182,0.8168,0.8182,0.8184,0.8203,0.8143,0.8136,0.813,0.8112,0.8104,0.8201,0.8202,0.8202,0.8203,0,0.7728,0.7743,0.7735,0.7786,0.7806,0.7808,0.7871,0.7883,0.7923,0.7963,0.7975,0.8022,0.8059,0.8064,0.8103,0.8079,0.8093,0.8129,0.8176,0.8114,0.8098,0.8092,0.8194,0.8196,0.8197,0.8199,0,0,0.7601,0.7686,0.7682,0.7707,0.7767,0.778,0.7787,0.7823,0.7832,0.7868,0.7876,0.7907,0.7942,0.7966,0.8009,0.8007,0.7959,0.8045,0.8047,0.8028,0.7937,0.7909,0.79,0.7988,0.7987,0.7986,0.7933,0,0.7541,0.7557,0.7612,0.7612,0.7627,0.7695,0.7701,0.7738,0.7776,0.7796,0.7838,0.786,0.7903,0.7918,0.7919,0.7964,0.7941,0.7969,0.7997,0.7998,0.7984,0.7892,0.7863,0.781,0.7927,0.7926,0.7925,0,0.7473,0.7505,0.7505,0.7565,0.7574,0.7578,0.7616,0.7633,0.7678,0.7705,0.7732,0.778,0.7791,0.7833,0.7851,0.7868,0.7883,0.7907,0.7907,0.7913,0.7958,0.7896,0.7795,0.7787,0.7916,0.7917,0.7917,0,0.7382,0.7424,0.7431,0.745,0.7519,0.7521,0.755,0.7597,0.7615,0.7648,0.766,0.7694,0.7712,0.7738,0.7794,0.7819,0.7805,0.7852,0.783,0.7828,0.7825,0.7825,0.7726,0.7832,0.7832,0.7832,0.7832,0,0.731,0.7308,0.7391,0.7395,0.7395,0.7459,0.7457,0.7493,0.7534,0.7547,0.7607,0.7617,0.769,0.7709,0.7753,0.7761,0.7769,0.7793,0.7805,0.7788,0.7785,0.78,0.7805,0.783,0.7831,0.7831,0.7831,0,0.7209,0.7264,0.7276,0.7341,0.7357,0.7354,0.7411,0.7418,0.7459,0.7474,0.7482,0.7547,0.7573,0.7631,0.7672,0.7701,0.7699,0.772,0.7684,0.7692,0.7667,0.7669,0.7575,0.7567,0.7676,0.7675,0.7674,0,0.716,0.716,0.7225,0.7238,0.7265,0.7284,0.7303,0.7366,0.7383,0.7434,0.7435,0.7465,0.7493,0.7531,0.7583,0.7615,0.7638,0.7602,0.7643,0.7627,0.7639,0.7638,0.7639,0.7594,0.7592,0.7591,0.759,0,0.7068,0.7095,0.712,0.7154,0.7174,0.7204,0.7237,0.7244,0.7315,0.7332,0.7359,0.738,0.7422,0.7452,0.7492,0.7523,0.7569,0.7577,0.7574,0.7557,0.7537,0.7549,0.7661,0.7579,0.758,0.7581,0.7581,0.7582,0.6992,0.6996,0.7043,0.7068,0.71,0.7129,0.7139,0.7182,0.7205,0.7244,0.728,0.7304,0.7349,0.7407,0.7435,0.7455,0.7478,0.7473,0.7472,0.747,0.7464,0.7532,0.7463,0.7463,0.7464,0.7464,0.7464,0,0.6904,0.6937,0.696,0.7005,0.7025,0.7065,0.7104,0.7119,0.7139,0.7177,0.7203,0.7234,0.7264,0.7317,0.7351,0.7357,0.7379,0.7364,0.7365,0.7372,0.7441,0.7441,0.7346,0.7346,0.7346,0.7346,0.7346,0.7346,0.6861,0.687,0.6902,0.6928,0.6961,0.6985,0.7004,0.7032,0.7063,0.7095,0.712,0.7154,0.7199,0.7237,0.7266,0.7281,0.7291,0.727,0.7291,0.7355,0.7367,0.7377,0.7378,0.7271,0.7271,0.7221,0.7221,0.722]},{"header":{"parameterUnit":"m.s-1","parameterCategory":1,"la1":30.2991,"la2":30.254,"lo1":-89.0895,"lo2":-89.0444,"dy":0.0017,"dx":0.0017,"nx":28,"ny":28,"refTime":"2024-06-27T21:00:00:Z","depth":0,"parameterNumber":3,"parameterNumberName":"V-component_of_WINDS"},"data":[0,0,0,0,0,0,0,0,0,0,0,0,0,0,0,0,0,0,0,0,0,0,0,0,0,0,0,0,0,0,0,0,0,0,0,0,0,0,0,0,0,0,0,0,0,0,0,0,0,0,0,0,0,0,0,0,0,0,3.8194,3.8194,0,3.8218,3.8218,3.8218,3.821,3.8209,3.8209,3.8208,3.8231,3.8232,3.8233,0,0,0,0,0,0,0,0,0,0,0,0,0,3.8139,3.814,3.8194,3.8194,3.8194,3.8218,3.8218,3.8218,3.821,3.8209,3.8209,3.8208,3.823,3.8231,3.8233,0,0,0,0,0,0,0,0,0,0,0,0,0,3.8163,3.8141,3.8194,3.8193,3.8193,3.8218,3.8218,3.8218,3.821,3.8209,3.8209,3.8208,3.823,3.8231,3.8233,3.8259,0,0,3.8238,3.8239,0,0,0,0,0,0,0,0,3.8162,3.8165,3.8193,3.8193,3.8194,3.821,3.8207,3.8232,3.821,3.8204,3.8208,3.8207,3.8224,3.8226,3.8232,3.826,3.8261,3.8238,3.8239,3.824,3.824,0,0,0,0,0,0,0,3.816,3.8164,3.8203,3.8193,3.8194,3.8191,3.8194,3.8212,3.8218,3.8204,3.8204,3.8207,3.8224,3.8231,3.8233,3.8261,3.8238,3.8239,3.824,3.8241,3.8311,3.8312,0,0,0,0,0,0,3.8159,3.8163,3.8202,3.8204,3.8175,3.8193,3.8196,3.8206,3.8218,3.8219,3.8207,3.8206,3.8228,3.8231,3.8234,3.8265,3.824,3.8241,3.8242,3.8311,3.8312,3.8313,0,0,0,0,0,0,3.8157,3.8162,3.8202,3.8183,3.8188,3.8195,3.8206,3.8206,3.8213,3.822,3.8221,3.8213,3.8228,3.8231,3.8253,3.8266,3.8242,3.8243,3.8309,3.8311,3.8312,3.8328,0,0,0,0,0,0,3.8156,3.8162,3.8172,3.8184,3.8189,3.8221,3.8207,3.8207,3.8216,3.8215,3.8226,3.8227,3.8228,3.825,3.8254,3.8268,3.8245,3.8308,3.831,3.8312,3.8327,3.833,3.8333,0,0,0,0,0,3.8154,3.8175,3.8173,3.8177,3.8202,3.8222,3.8225,3.8226,3.8217,3.8227,3.8232,3.8227,3.8264,3.8253,3.8257,3.8271,3.8308,3.831,3.8312,3.8325,3.833,3.8333,0,0,0,0,0,0,3.8164,3.8176,3.8174,3.8199,3.821,3.822,3.8233,3.823,3.8242,3.8241,3.8241,3.8243,3.8266,3.827,3.8258,3.8297,3.8284,3.8287,3.8293,3.8297,3.83,3.8299,3.8246,0,0,0,0,0,3.8169,3.8185,3.8194,3.8216,3.8221,3.8226,3.8235,3.8235,3.8245,3.8249,3.8256,3.8265,3.8279,3.8288,3.8302,3.8327,3.833,3.8339,3.8342,3.8345,3.8348,3.8362,3.8367,3.8319,3.8319,3.8319,0,0,3.818,3.8189,3.8198,3.8218,3.8226,3.8242,3.823,3.8247,3.8259,3.8252,3.8273,3.8278,3.8289,3.8313,3.8324,3.8317,3.8361,3.8347,3.8349,3.8351,3.8365,3.8369,3.8373,3.8321,3.832,3.832,0,0,3.8208,3.8216,3.8235,3.8244,3.8256,3.826,3.8264,3.8276,3.8279,3.83,3.8296,3.8309,3.8333,3.8342,3.8349,3.8381,3.8376,3.8385,3.8402,3.8416,3.842,3.8423,3.8435,3.844,3.8387,3.8388,3.8388,0,3.8219,3.8244,3.8245,3.8263,3.8272,3.8267,3.8287,3.8295,3.8311,3.8317,3.831,3.8341,3.8347,3.8374,3.8382,3.8388,3.8393,3.8384,3.8419,3.8423,3.8426,3.8438,3.8442,3.8389,3.8388,3.8388,3.8388,0,3.8258,3.8274,3.8288,3.8305,3.8316,3.8334,3.8338,3.8349,3.8348,3.8352,3.8374,3.8382,3.8398,3.8404,3.8403,3.843,3.8426,3.8419,3.8407,3.8431,3.8442,3.8447,3.839,3.839,3.8389,3.8389,0,0,3.8292,3.831,3.8315,3.8324,3.8338,3.835,3.8369,3.8385,3.8394,3.8405,3.8421,3.8441,3.8435,3.8444,3.8443,3.8456,3.8482,3.8448,3.8448,3.8455,3.8514,3.852,3.8525,3.8479,3.848,3.8481,3.8514,0,3.8322,3.8355,3.8357,3.8387,3.8403,3.8399,3.8415,3.8426,3.843,3.8444,3.8448,3.8463,3.8454,3.8459,3.8471,3.8476,3.8494,3.8474,3.8494,3.8494,3.8492,3.8531,3.8537,3.8567,3.8518,3.8518,3.8519,0,3.8361,3.8375,3.8407,3.8419,3.8426,3.8441,3.8456,3.8469,3.8481,3.8483,3.8493,3.8491,3.851,3.8496,3.8522,3.8508,3.8516,3.852,3.8521,3.8524,3.8509,3.8535,3.8577,3.8582,3.8526,3.8525,3.8525,0,3.8384,3.841,3.8433,3.844,3.8455,3.8466,3.8472,3.8483,3.8493,3.8506,3.8512,3.8527,3.8535,3.8546,3.8548,3.8538,3.8575,3.8561,3.8577,3.8577,3.8586,3.8585,3.8631,3.859,3.8589,3.8589,3.8589,0,3.8417,3.8437,3.8444,3.8458,3.848,3.8483,3.8504,3.851,3.852,3.8535,3.8532,3.8546,3.8548,3.8562,3.8564,3.8586,3.8589,3.8591,3.8592,3.8592,3.8592,3.8598,3.8597,3.8591,3.859,3.859,3.859,0,3.8447,3.8452,3.8477,3.849,3.8494,3.851,3.852,3.8534,3.8538,3.8557,3.8562,3.8568,3.8585,3.8589,3.8608,3.8609,3.8636,3.8633,3.8632,3.8632,3.8649,3.8648,3.87,3.8708,3.8661,3.8661,3.8662,0,3.8468,3.8484,3.8499,3.8509,3.8517,3.8533,3.8544,3.8546,3.8557,3.8572,3.8584,3.8601,3.8614,3.8642,3.8648,3.8663,3.8662,3.8679,3.8664,3.8664,3.8663,3.8663,3.8665,3.8682,3.8683,3.8683,3.8683,0,3.8506,3.8508,3.8524,3.8541,3.8553,3.8566,3.8579,3.8587,3.8591,3.8604,3.8622,3.8632,3.8653,3.867,3.8686,3.8692,3.8689,3.8688,3.8693,3.8694,3.8693,3.8695,3.8641,3.8687,3.8687,3.8686,3.8686,3.8686,3.8533,3.8547,3.8561,3.8578,3.8588,3.86,3.8614,3.862,3.8635,3.8653,3.8653,3.8673,3.8685,3.8705,3.8713,3.8728,3.8723,3.8729,3.8731,3.8733,3.8735,3.869,3.8731,3.8731,3.8731,3.873,3.873,0,3.8572,3.858,3.8597,3.8615,3.8629,3.8625,3.8639,3.865,3.8668,3.868,3.8694,3.8715,3.8731,3.8739,3.8756,3.8766,3.8765,3.8771,3.877,3.8772,3.8739,3.8733,3.8771,3.8771,3.8771,3.8771,3.8771,3.8771,3.8594,3.8618,3.8622,3.8651,3.8659,3.8679,3.8687,3.8698,3.8708,3.8732,3.8746,3.8751,3.8761,3.8779,3.8794,3.8796,3.8802,3.8809,3.881,3.8779,3.8774,3.877,3.8766,3.881,3.881,3.8842,3.8843,3.8843]}]]